Find STARLINK-37524

NORAD ID: 68842 Int'l Des: 2026-094D Owner: SPXS Country: US Constellation: starlink operational
LEOCIRCULARRETROGRADE

現在のビュー

3D地球を読み込み中...

About STARLINK-37524

STARLINK-37524 (NORAD 68842) is a starlink constellation satellite (v2 mini) launched Apr 26, 2026 by SPXS of US. It operates in LEO, CIRCULAR, RETROGRADE orbit with a mass of 575.00 kg.

STARLINK-37524について

説明を読み込み中...

次回通過

Passes for default location (London). Set your location on the main map for personalized predictions.

高度履歴

Loading altitude history...

軌道要素

1 68842U 26094D 26167.04735796 .00008269 00000-0 25814-3 0 9990
2 68842 97.2828 181.5066 0001482 101.0751 259.0659 15.33447731 7879
Epoch: Jun 16, 2026 • Age: 8 hours

現在のステータス

高度 468.8 km
速度 7.63 km/s
衛星直下点 0.04°N, 142.67°E
打ち上げ日 Apr 26, 2026
運用期間 0.1 years
タイプ internet

技術仕様

分類 Payload
質量 575.00 kg
乾燥質量 530.00 kg
総質量 575.00 kg
長さ 0.30 m
直径 4.10 m
スパン 29.00 m
形状 Box + pan
製造者 SPXS
バスタイプ Starlink V2MO
フェーズステータス In Orbit
所有者/国 SPXS/US

Most Searched